DIRECTV 10

Last updated on Mon Oct 20 2025 00:02:46 GMT+0000 (Coordinated Universal Time)

1 31862U 07032A 25292.24695045 -.00000106 00000+0 00000+0 0 9993 2 31862 0.0203 39.6240 0000833 196.0166 138.4662 1.00272539 43178
UTC large
Height (km)
Speed (km/s)
/
Latitude / Longitude
Inclination (degrees)
Orbital Period (minutes)
Azimuth
Elevation
Range (km)
Doppler Factor

Next 0 passes for location: London (51.5072 / 0.1276)

Sorry there are no passes over London.